Location: *
(49.5667°N, 1.3667°W)
Time: 16:48:43
(UTC+00:00)

ISS - Pass Details

Date: 20 September 2019
Orbit: 411 x 421 km, 51.6° (Epoch: 20 October)

Event Time Altitude Azimuth Distance (km) Brightness Sun altitude
Rises 20:53:29 0° 249° (WSW) 2,338 0.5 -25.8°
Reaches altitude 10° 20:55:34 10° 249° (WSW) 1,479 -0.6 -26.1°
Enters shadow 20:55:51 12° 249° (WSW) 1,361 -0.8 -26.1°
